Time,TemperatureF,DewpointF,PressureIn,WindDirection,WindDirectionDegrees,WindSpeedMPH,WindSpeedGustMPH,Humidity,HourlyPrecipIn,Conditions,Clouds,dailyrainin,SoftwareType,DateUTC
2013-01-28 07:19:00,63.4,57.5,29.85,SSE,155,5.0,5.0,81,0.00,,,0.00,Wunderground v.1.15,2013-01-28 13:19:00,
2013-01-28 07:29:00,63.7,57.8,29.85,SW,235,5.0,5.0,81,0.00,,,0.00,Wunderground v.1.15,2013-01-28 13:29:00,
2013-01-28 07:35:00,63.7,57.8,29.85,South,187,5.0,5.0,81,0.00,,,0.00,Wunderground v.1.15,2013-01-28 13:35:00,
2013-01-28 07:44:00,63.9,58.0,29.85,SW,214,5.0,5.0,81,0.00,,,0.00,Wunderground v.1.15,2013-01-28 13:44:00,
2013-01-28 07:54:00,63.9,58.0,29.85,SSW,194,4.0,5.0,81,0.00,,,0.00,Wunderground v.1.15,2013-01-28 13:54:00,
2013-01-28 08:04:00,64.2,58.2,29.86,South,170,5.0,9.0,81,0.00,,,0.00,Wunderground v.1.15,2013-01-28 14:04:00,
2013-01-28 08:10:00,64.2,57.9,29.86,South,175,5.0,5.0,80,0.00,,,0.00,Wunderground v.1.15,2013-01-28 14:10:00,
2013-01-28 08:19:00,64.5,58.2,29.86,SW,215,5.0,5.0,80,0.00,,,0.00,Wunderground v.1.15,2013-01-28 14:19:00,
2013-01-28 08:29:00,64.7,58.4,29.86,WSW,253,5.0,6.0,80,0.00,,,0.00,Wunderground v.1.15,2013-01-28 14:29:00,
2013-01-28 08:34:00,64.8,58.5,29.86,SSE,163,5.0,6.0,80,0.00,,,0.00,Wunderground v.1.15,2013-01-28 14:34:00,
2013-01-28 08:44:00,65.0,58.3,29.86,SSW,205,4.0,6.0,79,0.00,,,0.00,Wunderground v.1.15,2013-01-28 14:44:00,
2013-01-28 08:50:00,65.0,58.3,29.86,WSW,252,4.0,5.0,79,0.00,,,0.00,Wunderground v.1.15,2013-01-28 14:50:00,
2013-01-28 08:59:00,65.0,58.3,29.86,SW,231,3.0,11.0,79,0.00,,,0.00,Wunderground v.1.15,2013-01-28 14:59:00,
2013-01-28 09:05:00,65.2,58.5,29.86,SSW,202,4.0,11.0,79,0.00,,,0.00,Wunderground v.1.15,2013-01-28 15:05:00,
2013-01-28 09:14:00,65.5,58.5,29.86,South,180,5.0,5.0,78,0.00,,,0.00,Wunderground v.1.15,2013-01-28 15:14:00,
2013-01-28 09:25:00,65.6,58.6,29.86,SSW,196,5.0,5.0,78,0.00,,,0.00,Wunderground v.1.15,2013-01-28 15:25:00,
2013-01-28 09:34:00,65.6,58.6,29.86,South,182,5.0,6.0,78,0.00,,,0.00,Wunderground v.1.15,2013-01-28 15:34:00,
2013-01-28 09:39:00,65.8,58.7,29.86,SSE,158,6.0,9.0,78,0.00,,,0.00,Wunderground v.1.15,2013-01-28 15:39:00,
2013-01-28 09:49:00,66.0,58.6,29.86,South,182,5.0,5.0,77,0.00,,,0.00,Wunderground v.1.15,2013-01-28 15:49:00,
2013-01-28 09:54:00,66.1,58.7,29.86,South,190,6.0,9.0,77,0.00,,,0.00,Wunderground v.1.15,2013-01-28 15:54:00,
2013-01-28 09:59:00,66.3,58.9,29.86,SSE,168,6.0,6.0,77,0.00,,,0.00,Wunderground v.1.15,2013-01-28 15:59:00,
2013-01-28 10:04:00,66.4,59.0,29.86,South,182,5.0,7.0,77,0.00,,,0.00,Wunderground v.1.15,2013-01-28 16:04:00,
2013-01-28 10:10:00,66.8,59.0,29.86,South,169,5.0,10.0,76,0.00,,,0.00,Wunderground v.1.15,2013-01-28 16:10:00,
2013-01-28 10:19:00,67.3,59.1,29.86,SE,143,8.0,9.0,75,0.00,,,0.00,Wunderground v.1.15,2013-01-28 16:19:00,
2013-01-28 10:29:00,68.4,59.0,29.86,SW,219,8.0,13.0,72,0.00,,,0.00,Wunderground v.1.15,2013-01-28 16:29:00,
2013-01-28 10:34:00,68.9,59.1,29.86,West,269,8.0,16.0,71,0.00,,,0.00,Wunderground v.1.15,2013-01-28 16:34:00,
2013-01-28 10:44:00,68.9,59.5,29.86,SSE,161,8.0,9.0,72,0.00,,,0.00,Wunderground v.1.15,2013-01-28 16:44:00,
2013-01-28 10:54:00,69.3,59.5,29.86,SSW,201,9.0,16.0,71,0.00,,,0.00,Wunderground v.1.15,2013-01-28 16:54:00,
2013-01-28 10:59:00,69.6,59.4,29.86,SW,215,9.0,9.0,70,0.00,,,0.00,Wunderground v.1.15,2013-01-28 16:59:00,
2013-01-28 11:05:00,69.9,59.3,29.86,SSW,198,8.0,12.0,69,0.00,,,0.00,Wunderground v.1.15,2013-01-28 17:05:00,
2013-01-28 11:14:00,70.4,59.3,29.86,South,182,9.0,9.0,68,0.00,,,0.00,Wunderground v.1.15,2013-01-28 17:14:00,
2013-01-28 11:25:00,71.3,59.4,29.85,SW,222,8.0,8.0,66,0.00,,,0.00,Wunderground v.1.15,2013-01-28 17:25:00,
2013-01-28 11:30:00,71.6,59.6,29.85,SSW,192,9.0,9.0,66,0.00,,,0.00,Wunderground v.1.15,2013-01-28 17:30:00,
2013-01-28 11:39:00,72.0,59.6,29.85,SW,220,9.0,15.0,65,0.00,,,0.00,Wunderground v.1.15,2013-01-28 17:39:00,
2013-01-28 11:49:00,71.6,59.2,29.85,South,169,11.0,11.0,65,0.00,,,0.00,Wunderground v.1.15,2013-01-28 17:49:00,
2013-01-28 11:59:00,71.6,58.8,29.85,SSW,198,9.0,9.0,64,0.00,,,0.00,Wunderground v.1.15,2013-01-28 17:59:00,
2013-01-28 12:04:00,72.1,58.8,29.84,SSW,198,8.0,9.0,63,0.00,,,0.00,Wunderground v.1.15,2013-01-28 18:04:00,
2013-01-28 12:15:00,71.8,58.1,29.84,WSW,245,10.0,13.0,62,0.00,,,0.00,Wunderground v.1.15,2013-01-28 18:15:00,
2013-01-28 12:24:00,71.5,57.8,29.83,WSW,253,9.0,12.0,62,0.00,,,0.00,Wunderground v.1.15,2013-01-28 18:24:00,
2013-01-28 12:29:00,71.8,58.1,29.83,SE,144,8.0,8.0,62,0.00,,,0.00,Wunderground v.1.15,2013-01-28 18:29:00,
2013-01-28 12:34:00,71.8,57.6,29.82,WSW,251,8.0,9.0,61,0.00,,,0.00,Wunderground v.1.15,2013-01-28 18:34:00,
2013-01-28 12:39:00,71.8,57.6,29.82,SSE,155,9.0,9.0,61,0.00,,,0.00,Wunderground v.1.15,2013-01-28 18:39:00,
2013-01-28 12:49:00,72.5,57.8,29.82,SSW,196,11.0,11.0,60,0.00,,,0.00,Wunderground v.1.15,2013-01-28 18:49:00,
2013-01-28 12:54:00,72.3,57.6,29.82,SW,232,11.0,11.0,60,0.00,,,0.00,Wunderground v.1.15,2013-01-28 18:54:00,
2013-01-28 13:04:00,72.1,57.4,29.81,SSW,213,11.0,11.0,60,0.00,,,0.00,Wunderground v.1.15,2013-01-28 19:04:00,
2013-01-28 13:14:00,73.2,57.5,29.81,SSW,205,11.0,17.0,58,0.00,,,0.00,Wunderground v.1.15,2013-01-28 19:14:00,
2013-01-28 13:19:00,73.0,57.3,29.80,SSE,161,11.0,11.0,58,0.00,,,0.00,Wunderground v.1.15,2013-01-28 19:19:00,
2013-01-28 13:29:00,73.2,57.5,29.80,SW,216,8.0,8.0,58,0.00,,,0.00,Wunderground v.1.15,2013-01-28 19:29:00,
2013-01-28 13:34:00,73.5,57.8,29.80,SSE,166,9.0,9.0,58,0.00,,,0.00,Wunderground v.1.15,2013-01-28 19:34:00,
2013-01-28 13:44:00,73.5,57.3,29.80,SW,216,9.0,13.0,57,0.00,,,0.00,Wunderground v.1.15,2013-01-28 19:44:00,
2013-01-28 13:49:00,73.3,57.1,29.78,SW,232,9.0,9.0,57,0.00,,,0.00,Wunderground v.1.15,2013-01-28 19:49:00,
2013-01-28 13:59:00,73.5,57.3,29.78,South,184,10.0,12.0,57,0.00,,,0.00,Wunderground v.1.15,2013-01-28 19:59:00,
2013-01-28 14:05:00,73.0,57.3,29.78,SSE,147,10.0,12.0,58,0.00,,,0.00,Wunderground v.1.15,2013-01-28 20:05:00,
2013-01-28 14:14:00,72.7,57.1,29.78,SSE,165,9.0,11.0,58,0.00,,,0.00,Wunderground v.1.15,2013-01-28 20:14:00,
2013-01-28 14:19:00,72.8,57.2,29.78,SSE,159,10.0,10.0,58,0.00,,,0.00,Wunderground v.1.15,2013-01-28 20:19:00,
2013-01-28 14:29:00,73.3,57.1,29.78,West,273,9.0,12.0,57,0.00,,,0.00,Wunderground v.1.15,2013-01-28 20:29:00,
2013-01-28 14:34:00,73.5,57.3,29.77,SSE,165,9.0,12.0,57,0.00,,,0.00,Wunderground v.1.15,2013-01-28 20:34:00,
2013-01-28 14:39:00,73.5,56.8,29.77,SSW,212,9.0,14.0,56,0.00,,,0.00,Wunderground v.1.15,2013-01-28 20:39:00,
2013-01-28 14:44:00,73.5,56.8,29.77,South,188,9.0,14.0,56,0.00,,,0.00,Wunderground v.1.15,2013-01-28 20:44:00,
2013-01-28 14:50:00,73.5,56.8,29.77,WSW,249,9.0,9.0,56,0.00,,,0.00,Wunderground v.1.15,2013-01-28 20:50:00,
2013-01-28 14:55:00,73.5,56.3,29.77,SSE,167,9.0,9.0,55,0.00,,,0.00,Wunderground v.1.15,2013-01-28 20:55:00,
2013-01-28 15:04:00,73.7,56.5,29.77,SW,219,8.0,9.0,55,0.00,,,0.00,Wunderground v.1.15,2013-01-28 21:04:00,
2013-01-28 15:15:00,73.3,56.2,29.77,SW,234,9.0,9.0,55,0.00,,,0.00,Wunderground v.1.15,2013-01-28 21:15:00,
2013-01-28 15:20:00,73.2,56.1,29.77,SSW,192,10.0,10.0,55,0.00,,,0.00,Wunderground v.1.15,2013-01-28 21:20:00,
2013-01-28 15:25:00,73.3,56.7,29.77,SSW,209,10.0,10.0,56,0.00,,,0.00,Wunderground v.1.15,2013-01-28 21:25:00,
2013-01-28 15:34:00,73.5,56.8,29.77,SSE,160,7.0,10.0,56,0.00,,,0.00,Wunderground v.1.15,2013-01-28 21:34:00,
2013-01-28 15:40:00,73.3,56.7,29.77,SSE,165,8.0,8.0,56,0.00,,,0.00,Wunderground v.1.15,2013-01-28 21:40:00,
2013-01-28 15:49:00,73.2,56.6,29.77,South,174,9.0,9.0,56,0.00,,,0.00,Wunderground v.1.15,2013-01-28 21:49:00,
2013-01-28 15:54:00,73.0,56.9,29.77,SW,222,10.0,11.0,57,0.00,,,0.00,Wunderground v.1.15,2013-01-28 21:54:00,
2013-01-28 15:59:00,72.7,56.6,29.77,South,174,11.0,11.0,57,0.00,,,0.00,Wunderground v.1.15,2013-01-28 21:59:00,
2013-01-28 16:05:00,72.3,56.7,29.77,SSW,200,9.0,11.0,58,0.00,,,0.00,Wunderground v.1.15,2013-01-28 22:05:00,
2013-01-28 16:14:00,72.0,56.9,29.77,South,184,7.0,8.0,59,0.00,,,0.00,Wunderground v.1.15,2013-01-28 22:14:00,
2013-01-28 16:20:00,71.8,56.7,29.77,SE,143,6.0,6.0,59,0.00,,,0.00,Wunderground v.1.15,2013-01-28 22:20:00,
2013-01-28 16:29:00,71.5,56.9,29.77,SSW,196,7.0,7.0,60,0.00,,,0.00,Wunderground v.1.15,2013-01-28 22:29:00,
2013-01-28 16:34:00,71.1,56.5,29.77,South,178,6.0,7.0,60,0.00,,,0.00,Wunderground v.1.15,2013-01-28 22:34:00,
2013-01-28 16:44:00,70.8,56.7,29.77,South,188,6.0,7.0,61,0.00,,,0.00,Wunderground v.1.15,2013-01-28 22:44:00,
2013-01-28 16:50:00,70.8,56.7,29.77,South,185,7.0,7.0,61,0.00,,,0.00,Wunderground v.1.15,2013-01-28 22:50:00,
2013-01-28 16:59:00,70.6,56.5,29.77,SW,218,8.0,8.0,61,0.00,,,0.00,Wunderground v.1.15,2013-01-28 22:59:00,
2013-01-28 17:05:00,70.4,56.3,29.75,SSW,200,8.0,12.0,61,0.00,,,0.00,Wunderground v.1.15,2013-01-28 23:05:00,
2013-01-28 17:14:00,70.3,56.7,29.75,SSE,154,6.0,7.0,62,0.00,,,0.00,Wunderground v.1.15,2013-01-28 23:14:00,
2013-01-28 17:20:00,69.9,56.7,29.75,SSE,155,4.0,4.0,63,0.00,,,0.00,Wunderground v.1.15,2013-01-28 23:20:00,
2013-01-28 17:29:00,69.6,56.9,29.75,SSE,166,5.0,6.0,64,0.00,,,0.00,Wunderground v.1.15,2013-01-28 23:29:00,
2013-01-28 17:39:00,69.3,56.6,29.75,South,175,5.0,5.0,64,0.00,,,0.00,Wunderground v.1.15,2013-01-28 23:39:00,
2013-01-28 17:50:00,68.9,56.2,29.75,SSW,205,6.0,6.0,64,0.00,,,0.00,Wunderground v.1.15,2013-01-28 23:50:00,
2013-01-28 17:59:00,68.6,56.4,29.75,South,172,4.0,4.0,65,0.00,,,0.00,Wunderground v.1.15,2013-01-28 23:59:00,
2013-01-28 18:04:00,68.3,56.5,29.75,SSE,161,3.0,5.0,66,0.00,,,0.00,Wunderground v.1.15,2013-01-29 00:04:00,
2013-01-28 18:09:00,68.1,56.3,29.75,SSE,164,2.0,2.0,66,0.00,,,0.00,Wunderground v.1.15,2013-01-29 00:09:00,
2013-01-28 18:14:00,67.8,56.0,29.75,South,169,2.0,2.0,66,0.00,,,0.00,Wunderground v.1.15,2013-01-29 00:14:00,
2013-01-28 18:25:00,67.1,56.2,29.76,SSE,162,3.0,4.0,68,0.00,,,0.00,Wunderground v.1.15,2013-01-29 00:25:00,
2013-01-28 18:30:00,66.8,56.3,29.76,SE,128,2.0,4.0,69,0.00,,,0.00,Wunderground v.1.15,2013-01-29 00:30:00,
2013-01-28 18:39:00,66.6,56.5,29.76,SSE,153,2.0,4.0,70,0.00,,,0.00,Wunderground v.1.15,2013-01-29 00:39:00,
2013-01-28 18:44:00,66.8,56.7,29.76,SE,132,4.0,4.0,70,0.00,,,0.00,Wunderground v.1.15,2013-01-29 00:44:00,
2013-01-28 18:50:00,66.8,56.7,29.77,SSW,198,5.0,10.0,70,0.00,,,0.00,Wunderground v.1.15,2013-01-29 00:50:00,
2013-01-28 18:55:00,66.8,56.7,29.77,South,171,5.0,10.0,70,0.00,,,0.00,Wunderground v.1.15,2013-01-29 00:55:00,
2013-01-28 19:00:00,66.9,56.8,29.77,South,188,5.0,5.0,70,0.00,,,0.00,Wunderground v.1.15,2013-01-29 01:00:00,
2013-01-28 19:10:00,67.1,56.6,29.76,SSE,152,5.0,5.0,69,0.00,,,0.00,Wunderground v.1.15,2013-01-29 01:10:00,
2013-01-28 19:19:00,66.9,56.8,29.76,SSE,157,4.0,4.0,70,0.00,,,0.00,Wunderground v.1.15,2013-01-29 01:19:00,
2013-01-28 19:25:00,66.9,56.8,29.76,South,175,5.0,6.0,70,0.00,,,0.00,Wunderground v.1.15,2013-01-29 01:25:00,
2013-01-28 19:34:00,67.1,57.0,29.77,SSE,159,5.0,5.0,70,0.00,,,0.00,Wunderground v.1.15,2013-01-29 01:34:00,
2013-01-28 19:39:00,66.9,57.2,29.77,SSE,148,4.0,7.0,71,0.00,,,0.00,Wunderground v.1.15,2013-01-29 01:39:00,
2013-01-28 19:44:00,66.9,56.8,29.77,South,180,5.0,5.0,70,0.00,,,0.00,Wunderground v.1.15,2013-01-29 01:44:00,
2013-01-28 19:55:00,66.9,57.2,29.76,SSE,157,4.0,7.0,71,0.00,,,0.00,Wunderground v.1.15,2013-01-29 01:55:00,
2013-01-28 20:00:00,66.8,57.1,29.76,SSE,159,4.0,4.0,71,0.00,,,0.00,Wunderground v.1.15,2013-01-29 02:00:00,
2013-01-28 20:05:00,66.8,57.1,29.76,SSE,163,4.0,4.0,71,0.00,,,0.00,Wunderground v.1.15,2013-01-29 02:05:00,
2013-01-28 20:10:00,66.6,57.3,29.76,SSE,160,4.0,6.0,72,0.00,,,0.00,Wunderground v.1.15,2013-01-29 02:10:00,
2013-01-28 20:19:00,66.4,57.1,29.76,SSE,157,5.0,6.0,72,0.00,,,0.00,Wunderground v.1.15,2013-01-29 02:19:00,
2013-01-28 20:24:00,66.4,57.5,29.76,SSW,211,5.0,8.0,73,0.00,,,0.00,Wunderground v.1.15,2013-01-29 02:24:00,
2013-01-28 20:30:00,66.4,57.5,29.76,South,176,5.0,6.0,73,0.00,,,0.00,Wunderground v.1.15,2013-01-29 02:30:00,
2013-01-28 20:40:00,66.4,57.9,29.76,SSE,162,6.0,6.0,74,0.00,,,0.00,Wunderground v.1.15,2013-01-29 02:40:00,
2013-01-28 21:00:00,65.8,57.7,29.76,SE,141,4.0,4.0,75,0.00,,,0.00,Wunderground v.1.15,2013-01-29 03:00:00,
2013-01-28 21:10:00,65.5,57.7,29.75,SE,138,4.0,4.0,76,0.00,,,0.00,Wunderground v.1.15,2013-01-29 03:10:00,
2013-01-28 21:20:00,65.3,57.5,29.75,SSE,154,4.0,6.0,76,0.00,,,0.00,Wunderground v.1.15,2013-01-29 03:20:00,
2013-01-28 21:30:00,65.3,57.9,29.75,SSE,154,5.0,5.0,77,0.00,,,0.00,Wunderground v.1.15,2013-01-29 03:30:00,
2013-01-28 21:40:00,65.2,57.8,29.75,SE,142,4.0,4.0,77,0.00,,,0.00,Wunderground v.1.15,2013-01-29 03:40:00,
2013-01-28 21:54:00,65.0,58.0,29.74,SSE,147,4.0,4.0,78,0.00,,,0.00,Wunderground v.1.15,2013-01-29 03:54:00,
2013-01-28 21:59:00,64.8,57.8,29.74,SSE,165,3.0,4.0,78,0.00,,,0.00,Wunderground v.1.15,2013-01-29 03:59:00,
2013-01-28 22:29:00,64.5,57.8,29.73,SSE,149,4.0,6.0,79,0.00,,,0.00,Wunderground v.1.15,2013-01-29 04:29:00,
2013-01-28 23:19:00,63.7,57.8,29.73,SE,146,3.0,3.0,81,0.00,,,0.00,Wunderground v.1.15,2013-01-29 05:19:00,
2013-01-28 23:30:00,63.5,57.6,29.73,SSE,163,2.0,6.0,81,0.00,,,0.00,Wunderground v.1.15,2013-01-29 05:30:00,
2013-01-28 23:50:00,63.5,57.6,29.72,SE,146,4.0,4.0,81,0.00,,,0.00,Wunderground v.1.15,2013-01-29 05:50:00,